Home   Weather   Buffalo   Past weeks

Flag for USA Past Weather in Buffalo, New York, USA — Yesterday and Last 2 Weeks

Now
43 °F

Passing clouds.


Feels Like: 37 °F
Forecast: 36 / 44 °F
Wind: 10 mph from Southwest

Location: Greater Buffalo International Airport

Current Time: Feb 27, 2017 at 5:45:41 pm

Latest Report: Feb 27, 2017 at 4:54 pm


Visibility: 10 mi

Pressure: 30.27 "Hg

Humidity: 51%

Dew Point: 26 °F

Location of BuffaloLocation

Past Weather in Buffalo — Graph

°F

Buffalo Temperature Yesterday

Maximum temperature yesterday: 35 °F (at 11:54 pm)
Minimum temperature yesterday: 27 °F (at 5:54 am)
Average temperature yesterday: 30 °F

High & Low Weather Summary for the Past Weeks

 TemperatureHumidityPressure
High70 °F (Feb 24, 12:54 pm)93% (Feb 22, 2:54 am)30.38 "Hg (Feb 22, 2:54 am)
Low19 °F (Feb 16, 7:19 am)38% (Feb 20, 2:54 pm)29.45 "Hg (Feb 15, 4:19 am)
Average38 °F72%29.83 "Hg
* Reported Feb 12 3:08 pm — Feb 27 3:54 pm, Buffalo, Weather by CustomWeather, © 2017

Note: Actual official high and low records may vary slightly from our data, if they occured in-between our weather recording intervals... More about our weather records

Advertising

Buffalo Weather History for the Previous 24 Hours

Scroll right to see more
 ConditionsComfort  
Time TempWeatherWind HumidityBarometerVisibility
3:54 pm
Mon, Feb 27
43 °FPassing clouds.10 mph49%30.26 "Hg10 mi
2:54 pm45 °FPassing clouds.15 mph44%30.24 "Hg10 mi
1:54 pm45 °FPassing clouds.17 mph44%30.24 "Hg10 mi
12:54 pm45 °FPassing clouds.20 mph42%30.25 "Hg10 mi
11:54 am44 °FPassing clouds.22 mph43%30.26 "Hg10 mi
10:54 am43 °FPassing clouds.24 mph43%30.25 "Hg10 mi
9:54 am43 °FPassing clouds.24 mph42%30.23 "Hg10 mi
8:54 am42 °FPassing clouds.18 mph41%30.22 "Hg10 mi
7:54 am37 °FPartly sunny.12 mph48%30.22 "Hg10 mi
6:54 am38 °FScattered clouds.16 mph48%30.19 "Hg10 mi
5:54 am38 °FPassing clouds.18 mph45%30.16 "Hg10 mi
4:54 am39 °FClear.17 mph45%30.14 "Hg10 mi
3:54 am39 °FPassing clouds.21 mph43%30.13 "Hg10 mi
2:54 am39 °FPassing clouds.18 mph45%30.13 "Hg10 mi
1:54 am39 °FPassing clouds.22 mph43%30.12 "Hg10 mi
12:54 am36 °FPassing clouds.15 mph48%30.11 "Hg10 mi
11:54 pm
Sun, Feb 26
35 °FPassing clouds.15 mph50%30.10 "Hg10 mi
10:54 pm34 °FPassing clouds.15 mph50%30.10 "Hg10 mi
9:54 pm33 °FPassing clouds.14 mph54%30.09 "Hg10 mi
8:54 pm33 °FPassing clouds.16 mph54%30.09 "Hg10 mi
7:54 pm31 °FPassing clouds.10 mph67%30.08 "Hg10 mi
6:54 pm31 °FPassing clouds.12 mph73%30.08 "Hg10 mi
5:54 pm31 °FPassing clouds.15 mph69%30.08 "Hg10 mi
Weather by CustomWeather, © 2017

See weather overviewHow to use our weather pages